Weather History for Plattsburgh, NY

Change the Weather History Date:

Wednesday, May 15, 2013

  Actual Average Record
Temperature  
Mean Temperature 46 °F 56 °F  
Max Temperature 62 °F 68 °F 85 °F (1951)
Min Temperature 29 °F 45 °F 29 °F (2013)
Degree Days  
Heating Degree Days 20    
Cooling Degree Days 0 0  
Month to date cooling degree days 0 0  
Year to date cooling degree days 0 0  
Moisture  
Dew Point 38 °F    
Average Humidity 68    
Maximum Humidity 100    
Minimum Humidity 36    
Precipitation  
Precipitation 0.08 in - 1.05 in (2011)
Month to date precipitation 0.41  
Year to date precipitation 4.37  
Sea Level Pressure  
Sea Level Pressure 29.77 in    
Wind  
Wind Speed 8 mph (SSE)    
Max Wind Speed 26 mph    
Max Gust Speed 32 mph    
Visibility 10 miles    
Events Rain , Thunderstorm    
T = Trace of Precipitation, MM = Missing Value Source: NWS Daily Summary

Daily Weather History Graph

Daily Weather History Graph

Search for Another Location

Airport:

Trip Planner

Search our weather history database for the weather conditions in past years. The results will help you decide how hot, cold, wet, or windy it might be!

Date:

Astronomy

May. 15, 2013 Rise Set
Actual Time 5:25 AM EDT 8:15 PM EDT
Civil Twilight 4:51 AM EDT 8:49 PM EDT
Nautical Twilight 4:08 AM EDT 9:32 PM EDT
Astronomical Twilight 3:18 AM EDT 10:23 PM EDT
Moon 10:00 AM EDT (5/15) No Moon Set
Length of Visible Light 15h 57m
Length of Day
14h 49m
Waxing Crescent, 26% of the Moon is Illuminated
May 15
Waxing Crescent
May 18
First Quarter
May 25
Full
May 31
Last Quarter
Jun 8
New

Hourly Weather History & Observations

Time (EDT) Temp. Windchill Dew Point Humidity Pressure Visibility Wind Dir Wind Speed Gust Speed Precip Events Conditions
12:53 AM 37.0 °F - 28.9 °F 73% 30.02 in 10.0 mi Calm Calm - N/A   Clear
1:53 AM 33.1 °F - 28.9 °F 85% 30.01 in 10.0 mi Calm Calm - N/A   Clear
2:53 AM 32.0 °F - 30.0 °F 92% 30.01 in 10.0 mi Calm Calm - N/A   Clear
3:53 AM 32.0 °F 27.5 °F 30.0 °F 92% 30.00 in 10.0 mi WSW 4.6 mph - N/A   Clear
4:53 AM 28.9 °F - 28.0 °F 96% 30.00 in 10.0 mi Calm Calm - N/A   Clear
5:53 AM 28.9 °F - 28.0 °F 96% 29.99 in 10.0 mi Calm Calm - N/A   Clear
6:53 AM 35.1 °F - 30.9 °F 85% 29.98 in 10.0 mi Calm Calm - N/A   Clear
7:53 AM 43.0 °F 41.3 °F 34.0 °F 71% 29.95 in 10.0 mi South 3.5 mph - N/A   Clear
8:53 AM 46.9 °F - 36.0 °F 66% 29.92 in 10.0 mi SE 13.8 mph - N/A   Clear
9:53 AM 51.1 °F - 35.1 °F 54% 29.88 in 10.0 mi SE 16.1 mph - N/A   Clear
10:53 AM 55.0 °F - 34.0 °F 45% 29.83 in 10.0 mi SSE 18.4 mph 26.5 mph N/A   Clear
11:53 AM 61.0 °F - 34.0 °F 36% 29.80 in 10.0 mi SSE 16.1 mph 25.3 mph N/A   Clear
12:53 PM 59.0 °F - 34.0 °F 39% 29.73 in 10.0 mi SSE 19.6 mph 29.9 mph N/A   Partly Cloudy
1:53 PM 57.0 °F - 36.0 °F 45% 29.70 in 10.0 mi SSE 18.4 mph 25.3 mph 0.00 in Rain Light Rain
2:42 PM 51.8 °F - 42.8 °F 71% 29.67 in 7.0 mi South 13.8 mph 26.5 mph 0.04 in Rain , Thunderstorm Thunderstorms and Rain
2:53 PM 53.1 °F - 43.0 °F 69% 29.65 in 10.0 mi SSE 18.4 mph 27.6 mph 0.04 in Rain Light Rain
3:33 PM 51.8 °F - 44.6 °F 76% 29.61 in 8.0 mi South 12.7 mph 26.5 mph 0.04 in Rain , Thunderstorm Light Thunderstorms and Rain
3:53 PM 52.0 °F - 45.0 °F 77% 29.62 in 10.0 mi South 9.2 mph 19.6 mph 0.04 in   Overcast
4:53 PM 54.0 °F - 45.0 °F 72% 29.58 in 10.0 mi SSE 19.6 mph 25.3 mph 0.00 in Rain Light Rain
5:53 PM 53.1 °F - 46.0 °F 77% 29.57 in 10.0 mi SSE 13.8 mph 26.5 mph 0.00 in   Overcast
6:53 PM 55.9 °F - 46.0 °F 69% 29.54 in 10.0 mi South 11.5 mph 26.5 mph N/A   Overcast
7:53 PM 54.0 °F - 46.9 °F 77% 29.56 in 10.0 mi SSE 6.9 mph - N/A   Overcast
8:53 PM 53.1 °F - 48.0 °F 83% 29.60 in 10.0 mi Calm Calm - N/A   Overcast
9:53 PM 53.1 °F - 46.9 °F 80% 29.61 in 10.0 mi Calm Calm - N/A   Overcast
10:53 PM 48.9 °F - 46.0 °F 90% 29.62 in 10.0 mi Calm Calm - N/A   Scattered Clouds
11:53 PM 48.9 °F - 46.0 °F 90% 29.61 in 10.0 mi Calm Calm - N/A   Mostly Cloudy